Weather in Peterborough

United Kingdom     52°33′56″N   0°14′45″E
temp.,
°C
wind,
m/s
gust,
m/s
humid.,
%
clouds,
%
prec.,
mm/h
press.,
hPa
HPBL,
m
11 may, tue
tue1101:00+6s4119260 0.0 1006227
04:00+5ssw36946 0.0 1006100
07:00+7sse36875 0.0 1008190
10:00+13sse467221 0.1 1007927
13:00+15s6865100 1.1 10071636
16:00+12s598016 1.3 1006627
19:00+12s610747 1.9 1006583
22:00+8s6129010 0.4 1006580
12 may, wed
wed1201:00+8ssw611844 0.4 1007584
04:00+5ssw5109624 0.0 1008254
07:00+6ssw3890100 0.0 1009245
10:00+12sw567323 0.0 10101052
13:00+15sw565423 0.2 10101966
16:00+14sw456830 0.1 1009753
19:00+13se237393 0.3 100991
22:00+9se3585100 0.0 101080
13 may, thu
thu1301:00+7se3485100 0.0 100972
04:00+7e3681100 0.0 1009117
07:00+8ene37875 0.0 1008196
10:00+13ese57767 0.9 1008813
13:00+14e5670100 2.9 10071295
16:00+13ese358085 1.9 1007469
19:00+12e478428 3.9 1007279
22:00+8ene48965 0.6 1009220
14 may, fri
fri1401:00+5ne359569 0.6 100987
04:00+6nne3695100 0.0 1009125
07:00+8nne4995100 0.0 1010424
10:00+11nne6781100 0.0 1011887
13:00+11nne5573100 0.1 10121084
16:00+11ne4476100 0.0 1013753
19:00+10ne337985 0.0 1013480
22:00+6ese229212 0.0 101418
15 may, sat
sat1501:00+4sse22934 0.0 101417
04:00+4s349488 0.0 101354
07:00+7s368946 0.0 1013174
10:00+9sse4883100 0.0 1012387
13:00+13s6879100 0.2 1011973
16:00+13ssw6884100 2.5 1010746
19:00+11ssw51084100 3.8 1009607
22:00+8sse2795100 0.9 1009275